Terminal Aerodrome Forecast
Issued by NWS

Home | Current Version | Previous Version | Text Only | Print | Product List | Glossary On
Versions: 1 2 3 4 5 6 7 8 9 10 11 12 13 14
000
FTUS45 KPSR 300524
TAFBLH
TAF
KBLH 300524Z 3006/3106 25007KT P6SM FEW250
     FM301100 34006KT P6SM FEW120
     FM301800 18012KT P6SM FEW120 SCT250=

USA.gov is the U.S. government's official web portal to all federal, state and local government web resources and services.